Location: Csohesd
(46.2500°N, 22.6167°E)
Time: 03:16:41
(UTC+00:00)

In-Cosmos 22 Rocket - Pass Details

Date: 21 October 2021
Orbit: 790 x 888 km, 81.2° (Epoch: 30 November)

Event Time Altitude Azimuth Distance (km) Brightness Sun altitude
Rises 17:35:39 0° 349° (NNW) 3,315 7.5 -22.0°
Reaches altitude 10° 17:38:02 10° 349° (N) 2,374 6.7 -22.4°
Maximum altitude 17:43:23 89° 75° (ENE) 797 3.9 -23.3°
Enters shadow 17:46:34 25° 170° (S) 1,547 5.4 -23.8°
